User: anonymous   Login
Location: Caltech
(34.1382°N, 118.1253°W)
Time: 19:53:00
(UTC-08:00)
Language:

PANSAT - Orbit

View from above orbital plane
View from above orbital plane
View from above satellite
View from above satellite

Ground track
Ground track

The orbit data is extracted from the following two-line orbital elements,

1 25520U 98064B   14327.88692400  .00004915  00000-0  18533-3 0  6220
2 25520 028.4571 229.1345 0004398 065.2136 006.2665 15.24598016891022
Epoch (UTC): 23 November 2014 21:17:10
Eccentricity: 0.0004398
inclination: 28.4571°
perigee height: 489 km
apogee height: 495 km
right ascension of ascending node: 229.1345°
argument of perigee: 65.2136°
revolutions per day: 15.24598016
mean anomaly at epoch: 6.2665°
orbit number at epoch: 89102

The dashed part of the orbit path shows where the satellite is in the earth's shadow,  

DLR